Time,TemperatureF,DewpointF,PressureIn,WindDirection,WindDirectionDegrees,WindSpeedMPH,WindSpeedGustMPH,Humidity,HourlyPrecipIn,Conditions,Clouds,dailyrainin,SoftwareType,DateUTC
2013-10-03 00:24:00,64.0,62.0,29.98,SW,216,0.0,-999.0,94,-99.99,,,-99.99,,2013-10-03 04:24:00,
2013-10-03 00:53:00,64.0,62.0,29.98,SW,216,0.0,-999.0,94,-99.99,,,-99.99,,2013-10-03 04:53:00,
2013-10-03 01:23:00,63.0,62.0,29.98,SW,216,0.0,-999.0,95,-99.99,,,-99.99,,2013-10-03 05:23:00,
2013-10-03 01:52:00,63.0,62.0,29.97,SW,216,0.0,-999.0,96,-99.99,,,-99.99,,2013-10-03 05:52:00,
2013-10-03 02:22:00,63.0,62.0,29.97,SW,216,0.0,-999.0,97,-99.99,,,-99.99,,2013-10-03 06:22:00,
2013-10-03 02:52:00,63.0,62.0,29.96,SW,216,0.0,-999.0,97,-99.99,,,-99.99,,2013-10-03 06:52:00,
2013-10-03 03:22:00,63.0,62.0,29.95,SW,216,0.0,-999.0,97,-99.99,,,-99.99,,2013-10-03 07:22:00,
2013-10-03 03:52:00,62.0,61.0,29.96,SW,216,0.0,-999.0,96,-99.99,,,-99.99,,2013-10-03 07:52:00,
2013-10-03 04:22:00,61.0,60.0,29.96,SW,216,0.0,-999.0,97,-99.99,,,-99.99,,2013-10-03 08:22:00,
2013-10-03 04:52:00,62.0,61.0,29.96,SW,216,0.0,-999.0,98,-99.99,,,-99.99,,2013-10-03 08:52:00,
2013-10-03 05:22:00,62.0,61.0,29.96,SW,216,0.0,-999.0,98,-99.99,,,-99.99,,2013-10-03 09:22:00,
2013-10-03 05:53:00,62.0,61.0,29.96,SW,216,0.0,-999.0,98,-99.99,,,-99.99,,2013-10-03 09:53:00,
2013-10-03 06:23:00,62.0,61.0,29.97,SW,216,0.0,-999.0,98,-99.99,,,-99.99,,2013-10-03 10:23:00,
2013-10-03 06:52:00,62.0,61.0,29.95,SW,216,0.0,-999.0,98,-99.99,,,-99.99,,2013-10-03 10:52:00,
2013-10-03 07:23:00,62.0,61.0,29.97,SW,216,0.0,-999.0,98,-99.99,,,-99.99,,2013-10-03 11:23:00,
2013-10-03 07:52:00,63.0,63.0,29.96,SW,216,0.0,-999.0,99,-99.99,,,-99.99,,2013-10-03 11:52:00,
2013-10-03 08:22:00,63.0,63.0,29.96,SW,216,0.0,-999.0,99,-99.99,,,-99.99,,2013-10-03 12:22:00,
2013-10-03 08:52:00,64.0,64.0,29.96,SW,216,0.0,-999.0,99,-99.99,,,-99.99,,2013-10-03 12:52:00,
2013-10-03 09:22:00,65.0,65.0,29.97,SW,216,1.0,-999.0,99,-99.99,,,-99.99,,2013-10-03 13:22:00,
2013-10-03 09:52:00,66.0,66.0,29.98,SW,222,2.0,-999.0,99,-99.99,,,-99.99,,2013-10-03 13:52:00,
2013-10-03 10:22:00,66.0,66.0,29.97,SW,227,2.0,-999.0,99,-99.99,,,-99.99,,2013-10-03 14:22:00,
2013-10-03 10:52:00,67.0,67.0,29.97,SW,225,3.0,-999.0,99,-99.99,,,-99.99,,2013-10-03 14:52:00,
2013-10-03 11:22:00,68.0,67.0,29.97,SW,232,9.0,-999.0,98,-99.99,,,-99.99,,2013-10-03 15:22:00,
2013-10-03 11:54:00,70.0,68.0,29.97,SW,236,7.0,-999.0,93,-99.99,,,-99.99,,2013-10-03 15:54:00,
2013-10-03 12:23:00,70.0,67.0,29.97,SSW,207,6.0,-999.0,91,-99.99,,,-99.99,,2013-10-03 16:23:00,
2013-10-03 12:53:00,71.0,68.0,29.96,SSW,211,6.0,-999.0,89,-99.99,,,-99.99,,2013-10-03 16:53:00,
2013-10-03 13:22:00,73.0,68.0,29.96,SW,222,4.0,-999.0,85,-99.99,,,-99.99,,2013-10-03 17:22:00,
2013-10-03 13:52:00,71.0,68.0,29.95,SW,216,5.0,-999.0,89,-99.99,,,-99.99,,2013-10-03 17:52:00,
2013-10-03 14:22:00,72.0,69.0,29.93,SSW,207,5.0,-999.0,89,-99.99,,,-99.99,,2013-10-03 18:22:00,
2013-10-03 14:52:00,72.0,66.0,29.93,SW,224,4.0,-999.0,82,-99.99,,,-99.99,,2013-10-03 18:52:00,
2013-10-03 15:22:00,73.0,67.0,29.92,SSW,208,3.0,-999.0,81,-99.99,,,-99.99,,2013-10-03 19:22:00,
2013-10-03 15:52:00,74.0,68.0,29.91,SW,223,3.0,-999.0,81,-99.99,,,-99.99,,2013-10-03 19:52:00,
2013-10-03 16:22:00,74.0,68.0,29.90,SW,218,1.0,-999.0,82,-99.99,,,-99.99,,2013-10-03 20:22:00,
2013-10-03 16:52:00,75.0,68.0,29.90,SW,218,3.0,-999.0,79,-99.99,,,-99.99,,2013-10-03 20:52:00,
2013-10-03 17:21:00,76.0,67.0,29.89,SSW,205,6.0,-999.0,75,-99.99,,,-99.99,,2013-10-03 21:21:00,
2013-10-03 17:54:00,76.0,67.0,29.88,SSW,209,4.0,-999.0,74,-99.99,,,-99.99,,2013-10-03 21:54:00,
2013-10-03 18:23:00,77.0,67.0,29.88,SW,225,5.0,-999.0,72,-99.99,,,-99.99,,2013-10-03 22:23:00,
2013-10-03 18:54:00,76.0,66.0,29.87,SW,225,6.0,-999.0,72,-99.99,,,-99.99,,2013-10-03 22:54:00,
2013-10-03 19:22:00,74.0,66.0,29.87,SSW,213,3.0,-999.0,77,-99.99,,,-99.99,,2013-10-03 23:22:00,
2013-10-03 19:53:00,72.0,66.0,29.88,SSW,213,0.0,-999.0,81,-99.99,,,-99.99,,2013-10-03 23:53:00,
2013-10-03 20:22:00,71.0,66.0,29.89,SSW,213,0.0,-999.0,83,-99.99,,,-99.99,,2013-10-04 00:22:00,
2013-10-03 20:52:00,70.0,65.0,29.90,SSW,213,0.0,-999.0,85,-99.99,,,-99.99,,2013-10-04 00:52:00,
2013-10-03 21:22:00,69.0,65.0,29.92,SSW,213,0.0,-999.0,87,-99.99,,,-99.99,,2013-10-04 01:22:00,
2013-10-03 21:52:00,69.0,65.0,29.92,SSW,213,0.0,-999.0,88,-99.99,,,-99.99,,2013-10-04 01:52:00,
2013-10-03 22:22:00,69.0,64.0,29.95,NW,313,1.0,-999.0,83,-99.99,,,-99.99,,2013-10-04 02:22:00,
2013-10-03 22:52:00,69.0,62.0,29.95,West,281,1.0,-999.0,79,-99.99,,,-99.99,,2013-10-04 02:52:00,
2013-10-03 23:22:00,67.0,62.0,29.93,WNW,289,0.0,-999.0,85,-99.99,,,-99.99,,2013-10-04 03:22:00,